2007 VA85

Japanese version
Home page
Total 5,708 html files since Dec. 4, 1995
Updated on December 1, 2007

---------------------------------------------------------------------

* Profile

Discovery Date November 4, 2007
Magnitude 18.9 mag
Discoverer Lincoln Laboratory Near-Earth Asteroid Research project

* Orbital Elements

The following orbital elements are taken from MPEC 2007-W65:

Epoch 2007 Oct. 27.0 TT = JDT 2454400.5                 MPC
M  10.56980              (2000.0)            P               Q
n   0.11635517     Peri.   25.35290     -0.12555890     +0.73486741
a   4.1553945      Node   115.34899     +0.73726392     -0.38040778
e   0.7348876      Incl.  132.48151     +0.66383498     +0.56148002
P   8.47           H   15.1           G   0.15           U   6
From 71 observations 2007 Nov. 4-23, mean residual 0".40.

* Magnitudes Graph

        H = 15.1  G = 0.15

---------------------------------------------------------------------

The orbital elements are published at the MPC Ephemerides and Orbital Elements.
The magnitudes graphs are made with Comet for Windows.

---------------------------------------------------------------------

Copyright(C) 1995-2007 Seiichi Yoshida (comet@aerith.net). All rights reserved.